GFSNIL_con_sbcape_207.txt.gz
CAPE
106 86 63 119 271 357 427 310 267 521 701 520 626 644 571 594 659 482 602 592 320 231
241 234 157 102 110 277 146 272 391 414 407 551 672 829 908 716 757 955 655 488 527 383
247 234 273 216 178 328 453 546 827 1022 605 204 52 14 1 950 858 862 648 695 696 453
419 294 281 408 493 368 640 810 448 618 221 41 0 0 259 983 854 804 805 786 826 703
791 601 684 657 750 587 421 677 864 324 104 49 23 288 895 1097 1285 1159 936 794 745 780
914 937 789 720 602 425 315 244 543 667 510 569 683 927 1098 1115 988 860 897 846 770 807
782 832 896 708 635 560 386 342 143 267 557 494 413 340 375 766 1148 1224 1052 976 850 868
1039 876 870 847 845 814 746 649 476 354 314 371 582 810 751 710 879 957 957 922 848 926
1136 1107 1215 1153 1183 1179 1144 1029 972 898 916 857 865 1167 1328 1072 940 808 812 904 767 842
1047 1203 1169 1279 1261 1234 1270 1309 1437 1433 1270 1250 1126 1214 1277 501 548 921 616 607 739 737
940 1054 1271 1301 1309 1364 1349 1405 1486 1609 1646 1449 1054 791 390 66 32 191 415 380 454 507
1198 1325 1116 1407 1566 1425 1479 1537 554 565 279 125 19 0 0 0 0 8 131 255 311 321
2133 2267 2294 1926 1134 463 285 181 42 0 0 0 0 0 1 1 1 1 31 159 139 282
2240 2139 975 259 150 17 0 0 0 0 0 0 0 0 0 1 2 3 3 40 20 89

GFSNIL_con_sbcape_210.txt.gz
CAPE
22 4 0 17 106 223 231 298 245 381 141 604 900 936 903 887 1009 805 799 824 621 715
62 36 37 37 50 207 228 416 360 441 600 696 731 889 955 1063 1079 1082 798 726 949 962
119 108 92 75 98 140 240 296 486 972 971 703 554 545 371 769 1145 1148 1159 966 1060 799
148 92 164 193 167 159 294 450 573 608 481 153 48 35 43 272 1183 1312 1038 842 1163 1208
369 221 225 268 343 445 520 825 1135 715 563 435 192 162 752 1266 1558 1414 1323 1308 1132 1333
607 556 534 527 532 569 552 433 569 809 684 564 630 719 962 1222 1282 1241 1290 1315 1279 1359
746 874 801 654 633 595 456 434 316 432 745 766 713 671 676 771 996 1233 1373 1453 1391 1404
754 755 779 745 747 730 657 610 445 370 269 309 418 707 663 798 999 1078 1129 1294 1395 1333
870 832 806 823 880 920 886 876 935 926 879 858 922 875 605 681 953 1129 895 906 1265 1308
1037 1014 1029 1150 1139 1165 1185 1283 1317 1373 1323 1376 1403 637 391 52 435 960 852 929 956 1210
1010 1167 1145 1193 1317 1353 1341 1363 1380 1434 1550 1477 754 1 1 0 253 390 589 661 740 789
1008 1074 1113 1306 1352 1404 1429 1410 1099 551 144 79 0 0 1 0 2 67 141 172 312 558
923 1026 1025 1062 1120 834 860 475 171 0 0 0 0 1 0 0 1 0 2 0 8 12
1231 1300 1398 879 304 143 19 0 0 0 0 0 0 0 1 0 1 5 6 7 4 14

GFSNIL_con_sbcape_216.txt.gz
CAPE
2606 3225 1944 1533 1111 1028 934 1197 1290 2061 1845 2105 2073 2111 2636 2809 1619 1758 1773 1933 2134 1381
2563 2242 1700 1195 1336 1242 1347 1076 1740 2200 2167 1968 2285 2251 2301 3236 1833 2063 1993 1886 2146 2055
2547 2618 2243 1760 1181 1292 1366 1608 1702 2276 2272 2435 2424 1959 2853 2294 1919 2317 1770 1577 2128 2482
2277 2104 2181 1882 1639 1256 1699 1821 1911 2120 1977 1925 1890 2102 2653 2805 2065 2185 1956 1739 2073 1763
2617 2400 2139 1969 1711 1368 1610 2093 2156 2086 1790 2092 1890 2000 2110 1971 1584 2079 1993 1855 1918 2115
2571 2502 2283 2101 2011 1800 1907 2242 2202 2300 2269 2303 2367 2213 2409 2361 2137 2223 1922 1658 1792 1800
2697 2608 2787 2534 2735 2132 2188 2321 2358 2383 2425 2383 2151 2220 2193 2100 2382 2406 1827 1716 1874 2196
3075 2883 2692 2469 2714 2461 2413 2346 2509 2586 2605 2587 2446 2000 2137 2197 2076 2250 2471 2511 2528 2576
3402 3215 3103 2888 2939 2940 2821 2654 2608 2683 2658 2523 2063 1238 1063 1131 2367 2563 2787 2777 2688 2693
3616 3489 3463 3352 3269 3272 3112 2934 2940 2930 2826 2677 2706 1586 1129 500 1968 2528 2652 2873 2823 2592
3792 3648 3591 3530 3462 3392 3272 3300 3244 3175 3076 3206 3059 1 0 0 1970 2594 2758 2735 2501 2545
3955 3811 3654 3467 3434 3428 3446 3521 3590 3616 3701 3619 2268 0 0 0 1723 1838 1917 1823 1669 1630
4115 4058 3864 3721 3696 3756 3706 3646 3482 3681 3708 2567 886 0 0 0 92 102 54 2 0 0
4195 4210 4125 4342 4010 3847 3860 3597 3881 3517 2442 1894 1075 0 0 0 0 0 0 0 0 0

GFSNIL_con_sbcape_219.txt.gz
CAPE
2997 1888 1597 1758 1555 1646 1122 1274 1412 3050 2885 2015 2322 2244 1842 2144 2075 2721 2210 2193 2899 1899
2841 2218 1870 2027 1856 1676 2184 1146 2380 2415 2034 2064 2125 2158 2352 2469 2177 2768 2279 2626 2335 2010
2680 2471 2645 2136 1856 2896 2709 2165 2537 2042 2045 2284 2164 2531 2669 2609 2940 2540 2082 1886 2972 2365
3337 2553 2223 2116 1971 1888 2231 2371 2000 2201 1850 2515 2364 2378 3108 3227 1529 2377 2495 2139 2130 2377
3153 2644 2502 2442 2484 1862 2381 2306 2426 2384 1997 2480 2766 2326 2070 2852 1769 2416 2299 2111 2056 1798
3131 2797 2440 2269 2772 2068 2573 2387 2238 2995 2658 2741 2437 2250 2313 2087 2186 2100 2010 1860 1716 1681
3264 3096 2644 2733 3156 2532 3154 2765 3229 2846 3306 2873 2519 2444 2339 2709 2712 2428 2122 1904 1716 1857
4431 3994 3688 3679 3798 3289 3100 3002 3224 3307 3094 2685 2532 2278 2948 2306 2394 2668 2306 2230 2462 2597
4869 4279 3937 3758 4013 3040 3398 3313 3676 3607 3367 2812 2345 1550 1131 1250 1808 2540 2790 2707 2607 3372
4288 4391 4303 3799 4098 3945 3788 3914 4057 3741 3614 3320 3304 1606 906 901 1775 2110 2800 3277 2672 2456
4651 4373 4408 4225 4311 4333 4146 4207 4240 4230 4162 3818 3205 302 186 378 2616 2803 2969 2928 2729 2974
4986 4781 4708 4296 4591 4456 4573 4615 4444 4374 4472 3996 2971 1 0 43 2277 2373 2811 2462 2280 1906
4931 5417 5153 5174 5155 5123 4324 4394 3354 3450 4055 3803 1405 0 0 0 1462 1610 982 648 613 0
5159 5366 5345 5490 5264 5152 4821 4254 4727 4694 4415 3865 2534 0 0 0 11 178 55 0 0 0

GFSNIL_con_sbcape_222.txt.gz
CAPE
2637 1819 1558 1327 1493 1978 1865 952 2926 3099 2880 2933 2769 2468 3313 3099 2985 2779 2440 2599 2841 2026
3257 2918 1463 2141 2008 1571 1728 1376 2412 2353 1874 1891 2425 2744 2577 2475 2903 2426 2360 2699 3264 2060
2911 2753 2783 2530 2063 2550 2646 1070 2282 2199 1946 2244 2894 3081 2860 2732 2552 2490 2870 2233 2007 2194
2869 2884 2965 2682 2176 2891 2735 1314 1996 917 1377 2456 2205 2641 2893 2967 2602 1941 232 1693 2436 2974
3036 2715 3004 2744 2803 2664 2728 2606 2031 2040 2448 2753 2422 2772 2947 2742 1530 2218 1772 2049 2900 2520
3056 2977 3113 2786 3210 2802 2627 2932 2846 3254 3423 3268 3471 2046 2701 2660 2725 1990 2021 2292 2524 2662
3440 3443 3217 2869 2965 2752 2660 2591 2881 3486 3290 3202 2841 2572 2221 3071 3023 2319 2426 3065 3066 3080
4072 3768 4068 3366 3050 2621 2587 2702 2745 3202 3438 3104 2689 1995 2230 2945 3451 3512 2987 3110 3051 2870
4746 4261 4051 2864 2955 2960 2063 1920 2535 2951 3145 3040 2624 1970 1318 2479 3058 3716 3676 3584 3486 3547
4069 4523 4522 4298 3777 3644 2966 2202 2611 2611 3008 3093 2934 2087 904 793 2412 2657 2983 3585 3589 2649
4892 4868 4895 4795 4115 3970 3482 3055 2925 2787 3136 3443 3399 544 269 587 2465 3060 3246 2660 2750 2764
4960 5000 4928 4737 4615 4271 3925 3582 3252 3192 3560 3619 2029 2 294 871 2592 2927 2944 3084 2923 2599
4422 4673 4803 5021 4840 4628 4425 4269 4031 3965 4060 3737 3100 0 0 0 1853 2626 2581 2867 2520 0
4244 4499 4853 5152 5016 4670 4437 3964 4095 3895 3987 3942 1901 0 0 0 246 1347 1536 661 195 0